Flag for U.S.A. Weather past 2 weeks in Lowell, Massachusetts, U.S.A.

Now
14 °F

Mostly cloudy.


Feels Like: -5 °F
Forecast: 10 / 18 °F
Wind: 23 mph from Northwest

Location: Hanscom Field

Current Time: Jan 31, 2015 at 2:36:51 AM

Latest Report: Jan 31, 2015 at 1:56 AM


Visibility: 9 mi

Pressure: 29.80 "Hg

Humidity: 61%

Dew point: 3 °F

Location of LowellLocation

Historic Weather in Lowell — Graph

°F

Lowell temperature yesterday

Maximum temperature yesterday: 32 °F (at 1:56 PM)
Minimum temperature yesterday: 17 °F (at 11:56 PM)
Average temperature yesterday: 28 °F

Past Weeks' High & Low Weather Summary

 TemperatureHumidityPressure
High50 °F (Jan 18, 6:56 PM)100% (Jan 18, 2:56 PM)30.42 "Hg (Jan 18, 2:56 PM)
Low-11 °F (Jan 29, 4:56 AM)21% (Jan 17, 2:56 PM)29.22 "Hg (Jan 24, 4:56 PM)
Average25 °F69%29.96 "Hg
* Reported Jan 16 12:56 AM — Jan 31 12:56 AM, Lowell, Weather by CustomWeather, © 2014

Note: Actual official high and low records may vary slightly from our data, if they occured in-between our weather recording intervals... More about our weather records

Advertising

Lowell weather history for previous 24 hours

 ConditionsComfort  
Time TempWeatherWind HumidityBarometerVisibility
12:56 AM
Jan 31
15 °FOvercast.21 mph61%29.80 "Hg10 mi
11:56 PM
Jan 30
17 °FOvercast.17 mph62%29.82 "Hg10 mi
10:56 PM18 °FOvercast.16 mph62%29.83 "Hg9 mi
9:56 PM20 °FOvercast.25 mph65%29.82 "Hg9 mi
8:56 PM25 °FLight snow. Overcast.21 mph66%29.80 "Hg8 mi
7:56 PM27 °FLight snow. Overcast.22 mph69%29.79 "Hg9 mi
6:56 PM29 °FMostly cloudy.16 mph75%29.78 "Hg5 mi
6:03 PM31 °FLight snow. Ice fog.10 mph85%29.73 "Hg3 mi
5:56 PM31 °FLight snow. Ice fog.13 mph85%29.78 "Hg2 mi
4:56 PM31 °FOvercast.7 mph85%29.77 "Hg9 mi
3:56 PM31 °FIce fog.7 mph85%29.75 "Hg6 mi
3:03 PM32 °FOvercast.6 mph82%29.71 "Hg10 mi
2:56 PM32 °FOvercast.7 mph82%29.76 "Hg7 mi
2:03 PM32 °FOvercast.7 mph85%29.71 "Hg7 mi
1:56 PM32 °FLight snow. Low clouds.6 mph85%29.76 "Hg7 mi
12:56 PM31 °FLow clouds.6 mph89%29.76 "Hg7 mi
12:02 PM31 °FLight snow. Ice fog.3 mph92%29.74 "Hg2 mi
10:56 AM30 °FLight snow. Ice fog.3 mph96%29.82 "Hg2 mi
9:59 AM29 °FLight snow. Ice fog.No wind96%29.78 "Hg1 mi
8:56 AM29 °FLight snow. Ice fog.No wind96%29.85 "Hg3 mi
7:59 AM29 °FLight snow. Ice fog.3 mph96%29.82 "Hg4 mi
7:03 AM29 °FLow clouds.No wind93%29.84 "Hg10 mi
6:56 AM29 °FMostly cloudy.No wind93%29.88 "Hg10 mi
5:56 AM29 °FLight snow. Ice fog.No wind93%29.90 "Hg6 mi
4:56 AM30 °FLight snow. Overcast.5 mph85%29.92 "Hg7 mi
3:56 AM29 °FOvercast.6 mph85%29.94 "Hg10 mi
2:56 AM29 °FMostly cloudy.8 mph82%29.97 "Hg10 mi
Weather by CustomWeather, © 2014

See weather overviewHow to use our weather pages